Weather History for KBKV - March, 2014

Change the Weather History Date:

Sunday, March 2, 2014

  Actual Average Record
Temperature  
Mean Temperature 65 °F -  
Max Temperature 78 °F 73 °F 84 °F (1997)
Min Temperature 52 °F 49 °F 30 °F (2005)
Growing Degree Days 15 (Base 50)    
Moisture  
Dew Point 53 °F    
Average Humidity 75    
Maximum Humidity 97    
Minimum Humidity 40    
Precipitation  
Precipitation 0.00 in - - ()
Sea Level Pressure  
Sea Level Pressure 30.16 in    
Wind  
Wind Speed 5 mph (ENE)    
Max Wind Speed 12 mph    
Max Gust Speed -    
Visibility 9 miles    
Events      
Averages and records for this station are not official NWS values.
T = Trace of Precipitation, MM = Missing Value Source: NWS Daily Summary

Daily Weather History Graph

Daily Weather History Graph

Search for Another Location

Airport or City:

Trip Planner

Search our weather history database for the weather conditions in past years. The results will help you decide how hot, cold, wet, or windy it might be!

Date:

Astronomy

Mar. 02, 2014 Rise Set
Actual Time 6:53 AM EST 6:30 PM EST
Civil Twilight 6:30 AM EST 6:54 PM EST
Nautical Twilight 6:02 AM EST 7:21 PM EST
Astronomical Twilight 5:35 AM EST 7:48 PM EST
Moon 7:34 AM EST (3/2) 8:12 PM EST (3/2)
Length of Visible Light 12h 24m
Length of Day
11h 36m
Waxing Crescent, 3% of the Moon is Illuminated
Mar 2
Waxing Crescent
Mar 8
First Quarter
Mar 16
Full
Mar 23
Last Quarter
Mar 30
New

Hourly Weather History & Observations

Time (EST) Temp. Dew Point Humidity Pressure Visibility Wind Dir Wind Speed Gust Speed Precip Events Conditions
12:53 AM 54.0 °F 51.1 °F 90% 30.21 in 10.0 mi ENE 5.8 mph - N/A   Clear
1:53 AM 54.0 °F 52.0 °F 93% 30.21 in 10.0 mi NE 4.6 mph - N/A   Clear
2:53 AM 52.0 °F 51.1 °F 97% 30.18 in 6.0 mi ENE 4.6 mph - N/A   Clear
3:53 AM 53.1 °F 52.0 °F 96% 30.17 in 8.0 mi ENE 5.8 mph - N/A   Clear
4:53 AM 53.1 °F 52.0 °F 96% 30.17 in 7.0 mi NE 4.6 mph - N/A   Clear
5:53 AM 52.0 °F 50.0 °F 93% 30.19 in 7.0 mi NE 4.6 mph - N/A   Clear
6:28 AM 52.0 °F 51.1 °F 97% 30.20 in 8.0 mi NE 3.5 mph - N/A   Partly Cloudy
6:53 AM 52.0 °F 50.0 °F 93% 30.21 in 8.0 mi NE 5.8 mph - N/A   Clear
7:53 AM 54.0 °F 52.0 °F 93% 30.22 in 10.0 mi ENE 4.6 mph - N/A   Clear
8:53 AM 60.1 °F 53.1 °F 78% 30.24 in 10.0 mi ENE 5.8 mph - 0.00 in   Clear
9:53 AM 66.9 °F 53.1 °F 61% 30.25 in 10.0 mi NE 5.8 mph - N/A   Clear
10:53 AM 72.0 °F 55.9 °F 57% 30.24 in 10.0 mi Variable 5.8 mph - N/A   Clear
11:53 AM 75.0 °F 51.1 °F 43% 30.21 in 10.0 mi Variable 4.6 mph - N/A   Clear
12:53 PM 75.9 °F 51.1 °F 42% 30.17 in 10.0 mi SE 6.9 mph - N/A   Clear
1:53 PM 75.9 °F 51.1 °F 42% 30.14 in 10.0 mi SSW 6.9 mph - N/A   Clear
2:53 PM 78.1 °F 52.0 °F 40% 30.11 in 10.0 mi SE 9.2 mph - N/A   Clear
3:53 PM 78.1 °F 52.0 °F 40% 30.10 in 10.0 mi SW 8.1 mph - N/A   Partly Cloudy
4:53 PM 73.9 °F 53.1 °F 48% 30.10 in 10.0 mi West 11.5 mph - N/A   Clear
5:53 PM 71.1 °F 54.0 °F 55% 30.11 in 10.0 mi WNW 8.1 mph - N/A   Clear
6:53 PM 66.0 °F 55.9 °F 70% 30.12 in 10.0 mi NW 4.6 mph - N/A   Clear
7:53 PM 61.0 °F 55.0 °F 81% 30.11 in 10.0 mi Calm Calm - N/A   Clear
8:53 PM 57.9 °F 55.0 °F 90% 30.12 in 10.0 mi Calm Calm - N/A   Clear
9:53 PM 57.0 °F 55.0 °F 93% 30.10 in 10.0 mi Calm Calm - N/A   Clear
10:53 PM 54.0 °F 52.0 °F 93% 30.09 in 10.0 mi Calm Calm - N/A   Clear
11:53 PM 53.1 °F 52.0 °F 96% 30.09 in 10.0 mi Calm Calm - N/A   Clear